COSMOS 1867 COOLANT

Satellite information

Favourite Embed

Satellite Type and Status

DEBRISIN ORBIT

Key statistics

Satellite COSMOS 1867 COOLANT at a glance.

Uptime

13878

Days in orbit

Revolutions

≈ 14.3

Per day

Orbit

LEO

Low Earth Orbit

Inclination

65.0

Latest

Satellite identification and parameters

Extended collection of information and parameters for COSMOS 1867 COOLANT.

Object identification

Identified? True

Debris? False

Object name: COSMOS 1867 COOLANT

International designator: 1987-060H

Object number (NORAD): 39640

Object ID (CCSDS): 39640

Country: COMMONWEALTH OF INDEPENDENT STATES (CIS)

Current information (Y/N): Y

RCS size: SMALL

Orbital parameters

Period: 100.424 minutes

Inclination: 65.0089 deg

SMA: 7156.788 km

Apoapsis: 789.008 km

Periapsis: 768.298 km

RAAN: 252.6813 deg

Eccentricy: 0.0014469

Argument of periapsis: 263.9289 deg

Mean anomaly: 96.0148 deg

Mean motion: 14.33922021 rev/day

Mean motion (dot): 0.0000014 rev/day2

B* drag term: 0.000086178 1/REarth

Two-line elements (TLE)

Creation date: July 7, 2025, 10:16 p.m.

Reference frame: TEME

Reference center: EARTH

Epoch: July 7, 2025, 3:11 p.m. UTC

TLE line 0: 0 COSMOS 1867 COOLANT

TLE line 1: 1 39640U 87060H 25188.63314878 .00000140 00000-0 86178-4 0 9996

TLE line 2: 2 39640 65.0089 252.6813 0014469 263.9289 96.0148 14.33922021589144

Live tracking on map

Real-time ground track for satellite COSMOS 1867 COOLANT.

In-orbit conjunctions

A list of the most updated potential collisions computed for object COSMOS 1867 COOLANT.

Target Orbit TCA Probability of collision Miss distance Type
CZ-6A DEB LEO 2025-02-04 13:48:34 0.0001784458 406.0 (m) DEBRIS
FENGYUN 1C DEB SSO 2024-12-25 10:49:42 0.0001414495 122.0 (m) DEBRIS

Associated space launch

Nuclear-powered magnetospheric research satellite

COSMOS 1867 COOLANT was lifted into orbit during the mission ‘Tsiklon-2 | Plasma-A 2’, on board a Tsiklon-2 space rocket.

The launch took place on July 10, 1987, 3:35 p.m. from 90.

For more information about the launch, click the button.

Launch to space Tsiklon-2 | Plasma-A 2
Tsiklon-2 | Plasma-A 2

Agency: N/A

Status: Launch Successful

Launch date: July 10, 1987, 3:35 p.m. UTC

Rocket: Tsiklon-2

Launch pad: 90

Location: Baikonur Cosmodrome, Republic of Kazakhstan

...

Latest news about this satellite

There are no fresh news available about this satellite. Check back as we update our databases every day.


Newsletter sign-up

Weekly statistics, charts and insights to help you stay on top of the space industry.